Time,TemperatureF,DewpointF,PressureIn,WindDirection,WindDirectionDegrees,WindSpeedMPH,WindSpeedGustMPH,Humidity,HourlyPrecipIn,Conditions,Clouds,dailyrainin,SoftwareType,DateUTC
2013-05-16 00:05:00,59.0,56.0,29.69,South,180,0.0,0.0,91,0.00,,,0.00,TxWx,2013-05-16 04:05:00,
2013-05-16 00:10:00,59.0,56.0,29.69,SSE,157,0.0,0.0,91,0.00,,,0.00,TxWx,2013-05-16 04:10:00,
2013-05-16 00:15:00,59.0,56.0,29.70,South,180,1.0,1.0,90,0.00,,,0.00,TxWx,2013-05-16 04:15:00,
2013-05-16 00:20:00,59.0,56.0,29.70,South,180,0.0,0.0,90,0.00,,,0.00,TxWx,2013-05-16 04:20:00,
2013-05-16 00:25:00,59.0,56.0,29.70,WSW,247,3.0,3.0,90,0.00,,,0.00,TxWx,2013-05-16 04:25:00,
2013-05-16 00:33:00,59.0,56.0,29.70,South,180,2.0,3.0,90,0.00,,,0.00,TxWx,2013-05-16 04:33:00,
2013-05-16 00:38:00,59.0,56.0,29.70,East,90,3.0,3.0,90,0.00,,,0.00,TxWx,2013-05-16 04:38:00,
2013-05-16 00:43:00,59.0,56.0,29.70,ENE,67,0.0,1.0,89,0.00,,,0.00,TxWx,2013-05-16 04:43:00,
2013-05-16 00:48:00,59.0,56.0,29.70,NE,45,0.0,1.0,89,0.00,,,0.00,TxWx,2013-05-16 04:48:00,
2013-05-16 00:53:00,59.0,55.0,29.70,NNE,22,0.0,1.0,87,0.00,,,0.00,TxWx,2013-05-16 04:53:00,
2013-05-16 00:58:00,59.0,55.0,29.70,North,0,0.0,0.0,86,0.00,,,0.00,TxWx,2013-05-16 04:58:00,
2013-05-16 01:03:00,59.0,55.0,29.71,WNW,292,0.0,0.0,86,0.00,,,0.00,TxWx,2013-05-16 05:03:00,
2013-05-16 01:08:00,58.0,54.0,29.70,WNW,292,0.0,0.0,85,0.00,,,0.00,TxWx,2013-05-16 05:08:00,
2013-05-16 01:13:00,58.0,54.0,29.70,WSW,247,0.0,0.0,85,0.00,,,0.00,TxWx,2013-05-16 05:13:00,
2013-05-16 01:18:00,58.0,53.0,29.70,NE,45,0.0,0.0,84,0.00,,,0.00,TxWx,2013-05-16 05:18:00,
2013-05-16 01:23:00,57.0,52.0,29.70,WNW,292,0.0,0.0,83,0.00,,,0.00,TxWx,2013-05-16 05:23:00,
2013-05-16 01:28:00,58.0,52.0,29.70,WSW,247,0.0,1.0,82,0.00,,,0.00,TxWx,2013-05-16 05:28:00,
2013-05-16 01:33:00,58.0,52.0,29.70,WSW,247,0.0,0.0,80,0.00,,,0.00,TxWx,2013-05-16 05:33:00,
2013-05-16 01:38:00,58.0,51.0,29.70,WSW,247,0.0,1.0,79,0.00,,,0.00,TxWx,2013-05-16 05:38:00,
2013-05-16 01:43:00,57.0,50.0,29.69,WSW,247,0.0,1.0,78,0.00,,,0.00,TxWx,2013-05-16 05:43:00,
2013-05-16 01:48:00,57.0,50.0,29.69,WSW,247,0.0,0.0,77,0.00,,,0.00,TxWx,2013-05-16 05:48:00,
2013-05-16 01:54:00,57.0,50.0,29.69,WSW,247,0.0,0.0,77,0.00,,,0.00,TxWx,2013-05-16 05:54:00,
2013-05-16 01:59:00,57.0,49.0,29.69,WSW,247,1.0,1.0,76,0.00,,,0.00,TxWx,2013-05-16 05:59:00,
2013-05-16 02:06:00,57.0,49.0,29.69,WSW,247,0.0,0.0,76,0.00,,,0.00,TxWx,2013-05-16 06:06:00,
2013-05-16 02:13:00,57.0,49.0,29.70,WSW,247,0.0,1.0,75,0.00,,,0.00,TxWx,2013-05-16 06:13:00,
2013-05-16 02:19:00,57.0,49.0,29.69,WSW,247,0.0,0.0,74,0.00,,,0.00,TxWx,2013-05-16 06:19:00,
2013-05-16 02:24:00,57.0,49.0,29.69,WSW,247,0.0,0.0,74,0.00,,,0.00,TxWx,2013-05-16 06:24:00,
2013-05-16 02:29:00,56.0,48.0,29.70,WSW,247,0.0,0.0,75,0.00,,,0.00,TxWx,2013-05-16 06:29:00,
2013-05-16 02:34:00,56.0,48.0,29.70,WSW,247,0.0,0.0,76,0.00,,,0.00,TxWx,2013-05-16 06:34:00,
2013-05-16 02:39:00,56.0,49.0,29.70,WSW,247,0.0,1.0,78,0.00,,,0.00,TxWx,2013-05-16 06:39:00,
2013-05-16 02:44:00,55.0,48.0,29.69,West,270,0.0,1.0,79,0.00,,,0.00,TxWx,2013-05-16 06:44:00,
2013-05-16 02:49:00,55.0,49.0,29.69,West,270,0.0,0.0,79,0.00,,,0.00,TxWx,2013-05-16 06:49:00,
2013-05-16 02:54:00,54.0,47.0,29.69,West,270,0.0,0.0,79,0.00,,,0.00,TxWx,2013-05-16 06:54:00,
2013-05-16 02:59:00,54.0,47.0,29.69,West,270,0.0,0.0,78,0.00,,,0.00,TxWx,2013-05-16 06:59:00,
2013-05-16 03:04:00,54.0,47.0,29.69,West,270,0.0,0.0,78,0.00,,,0.00,TxWx,2013-05-16 07:04:00,
2013-05-16 03:09:00,54.0,47.0,29.69,West,270,0.0,0.0,78,0.00,,,0.00,TxWx,2013-05-16 07:09:00,
2013-05-16 03:10:00,76.0,44.0,29.71,WSW,247,6.0,8.0,32,0.00,,,0.00,TxWx,2013-05-16 07:10:00,
2013-05-16 03:14:00,54.0,47.0,29.69,West,270,0.0,0.0,78,0.00,,,0.00,TxWx,2013-05-16 07:14:00,
2013-05-16 03:19:00,53.0,46.0,29.69,West,270,0.0,0.0,78,0.00,,,0.00,TxWx,2013-05-16 07:19:00,
2013-05-16 03:24:00,53.0,46.0,29.69,West,270,0.0,0.0,78,0.00,,,0.00,TxWx,2013-05-16 07:24:00,
2013-05-16 03:29:00,53.0,46.0,29.69,West,270,0.0,0.0,79,0.00,,,0.00,TxWx,2013-05-16 07:29:00,
2013-05-16 03:34:00,52.0,46.0,29.69,West,270,0.0,0.0,79,0.00,,,0.00,TxWx,2013-05-16 07:34:00,
2013-05-16 03:40:00,52.0,46.0,29.69,West,270,0.0,0.0,80,0.00,,,0.00,TxWx,2013-05-16 07:40:00,
2013-05-16 03:45:00,52.0,46.0,29.69,West,270,0.0,0.0,81,0.00,,,0.00,TxWx,2013-05-16 07:45:00,
2013-05-16 03:50:00,51.0,45.0,29.69,West,270,0.0,0.0,81,0.00,,,0.00,TxWx,2013-05-16 07:50:00,
2013-05-16 03:55:00,51.0,46.0,29.69,West,270,0.0,0.0,82,0.00,,,0.00,TxWx,2013-05-16 07:55:00,
2013-05-16 04:00:00,51.0,46.0,29.69,West,270,0.0,0.0,83,0.00,,,0.00,TxWx,2013-05-16 08:00:00,
2013-05-16 04:05:00,51.0,46.0,29.69,West,270,0.0,0.0,83,0.00,,,0.00,TxWx,2013-05-16 08:05:00,
2013-05-16 04:10:00,51.0,46.0,29.69,WSW,247,0.0,0.0,84,0.00,,,0.00,TxWx,2013-05-16 08:10:00,
2013-05-16 04:15:00,50.0,45.0,29.68,WSW,247,0.0,0.0,84,0.00,,,0.00,TxWx,2013-05-16 08:15:00,
2013-05-16 04:20:00,50.0,46.0,29.69,WSW,247,0.0,0.0,85,0.00,,,0.00,TxWx,2013-05-16 08:20:00,
2013-05-16 04:25:00,50.0,46.0,29.69,West,270,0.0,0.0,85,0.00,,,0.00,TxWx,2013-05-16 08:25:00,
2013-05-16 04:30:00,49.0,45.0,29.69,West,270,0.0,0.0,86,0.00,,,0.00,TxWx,2013-05-16 08:30:00,
2013-05-16 04:35:00,49.0,45.0,29.69,West,270,0.0,0.0,86,0.00,,,0.00,TxWx,2013-05-16 08:35:00,
2013-05-16 04:40:00,49.0,45.0,29.68,West,270,0.0,0.0,87,0.00,,,0.00,TxWx,2013-05-16 08:40:00,
2013-05-16 04:45:00,49.0,45.0,29.69,West,270,0.0,0.0,87,0.00,,,0.00,TxWx,2013-05-16 08:45:00,
2013-05-16 04:50:00,49.0,45.0,29.69,WSW,247,0.0,0.0,88,0.00,,,0.00,TxWx,2013-05-16 08:50:00,
2013-05-16 04:56:00,49.0,46.0,29.69,WSW,247,0.0,0.0,88,0.00,,,0.00,TxWx,2013-05-16 08:56:00,
2013-05-16 05:01:00,48.0,45.0,29.69,West,270,0.0,0.0,89,0.00,,,0.00,TxWx,2013-05-16 09:01:00,
2013-05-16 05:06:00,48.0,45.0,29.69,WSW,247,0.0,0.0,90,0.00,,,0.00,TxWx,2013-05-16 09:06:00,
2013-05-16 05:11:00,48.0,45.0,29.69,West,270,0.0,0.0,90,0.00,,,0.00,TxWx,2013-05-16 09:11:00,
2013-05-16 05:16:00,48.0,45.0,29.69,WSW,247,0.0,0.0,91,0.00,,,0.00,TxWx,2013-05-16 09:16:00,
2013-05-16 05:21:00,48.0,45.0,29.70,WSW,247,0.0,0.0,91,0.00,,,0.00,TxWx,2013-05-16 09:21:00,
2013-05-16 05:26:00,48.0,46.0,29.70,WSW,247,0.0,0.0,92,0.00,,,0.00,TxWx,2013-05-16 09:26:00,
2013-05-16 05:31:00,48.0,46.0,29.70,WSW,247,0.0,0.0,92,0.00,,,0.00,TxWx,2013-05-16 09:31:00,
2013-05-16 05:36:00,48.0,46.0,29.71,WSW,247,0.0,0.0,93,0.00,,,0.00,TxWx,2013-05-16 09:36:00,
2013-05-16 05:41:00,48.0,46.0,29.71,WSW,247,0.0,0.0,93,0.00,,,0.00,TxWx,2013-05-16 09:41:00,
2013-05-16 05:46:00,48.0,46.0,29.71,WSW,247,0.0,0.0,93,0.00,,,0.00,TxWx,2013-05-16 09:46:00,
2013-05-16 05:51:00,48.0,46.0,29.71,WSW,247,0.0,0.0,94,0.00,,,0.00,TxWx,2013-05-16 09:51:00,
2013-05-16 05:56:00,48.0,46.0,29.71,WSW,247,0.0,0.0,94,0.00,,,0.00,TxWx,2013-05-16 09:56:00,
2013-05-16 06:01:00,48.0,46.0,29.72,WSW,247,0.0,0.0,94,0.00,,,0.00,TxWx,2013-05-16 10:01:00,
2013-05-16 06:06:00,48.0,46.0,29.71,WSW,247,0.0,6.0,95,0.00,,,0.00,TxWx,2013-05-16 10:06:00,
2013-05-16 06:11:00,49.0,48.0,29.72,WSW,247,0.0,0.0,95,0.00,,,0.00,TxWx,2013-05-16 10:11:00,
2013-05-16 06:17:00,49.0,48.0,29.72,South,180,0.0,0.0,95,0.00,,,0.00,TxWx,2013-05-16 10:17:00,
2013-05-16 06:22:00,49.0,48.0,29.72,South,180,0.0,0.0,96,0.00,,,0.00,TxWx,2013-05-16 10:22:00,
2013-05-16 06:27:00,50.0,49.0,29.72,South,180,0.0,0.0,96,0.00,,,0.00,TxWx,2013-05-16 10:27:00,
2013-05-16 06:32:00,50.0,49.0,29.73,South,180,0.0,0.0,96,0.00,,,0.00,TxWx,2013-05-16 10:32:00,
2013-05-16 06:37:00,51.0,50.0,29.73,South,180,0.0,0.0,96,0.00,,,0.00,TxWx,2013-05-16 10:37:00,
2013-05-16 06:42:00,51.0,50.0,29.73,ESE,112,0.0,0.0,96,0.00,,,0.00,TxWx,2013-05-16 10:42:00,
2013-05-16 06:47:00,52.0,51.0,29.73,ESE,112,0.0,0.0,97,0.00,,,0.00,TxWx,2013-05-16 10:47:00,
2013-05-16 06:52:00,52.0,51.0,29.73,ESE,112,0.0,0.0,97,0.00,,,0.00,TxWx,2013-05-16 10:52:00,
2013-05-16 06:57:00,53.0,52.0,29.73,ESE,112,0.0,0.0,97,0.00,,,0.00,TxWx,2013-05-16 10:57:00,
2013-05-16 07:02:00,53.0,52.0,29.73,ESE,112,0.0,0.0,97,0.00,,,0.00,TxWx,2013-05-16 11:02:00,
2013-05-16 07:07:00,54.0,53.0,29.73,ESE,112,0.0,0.0,96,0.00,,,0.00,TxWx,2013-05-16 11:07:00,
2013-05-16 07:12:00,55.0,54.0,29.73,ESE,112,0.0,0.0,95,0.00,,,0.00,TxWx,2013-05-16 11:12:00,
2013-05-16 07:17:00,55.0,53.0,29.73,ESE,112,0.0,0.0,95,0.00,,,0.00,TxWx,2013-05-16 11:17:00,
2013-05-16 07:22:00,55.0,53.0,29.74,ESE,112,0.0,0.0,94,0.00,,,0.00,TxWx,2013-05-16 11:22:00,
2013-05-16 07:27:00,56.0,54.0,29.74,ESE,112,0.0,0.0,93,0.00,,,0.00,TxWx,2013-05-16 11:27:00,
2013-05-16 07:33:00,57.0,55.0,29.74,ESE,112,0.0,0.0,92,0.00,,,0.00,TxWx,2013-05-16 11:33:00,
2013-05-16 07:38:00,57.0,54.0,29.74,ESE,112,0.0,0.0,91,0.00,,,0.00,TxWx,2013-05-16 11:38:00,
2013-05-16 07:43:00,57.0,54.0,29.74,ESE,112,1.0,1.0,89,0.00,,,0.00,TxWx,2013-05-16 11:43:00,
2013-05-16 07:48:00,57.0,53.0,29.75,ESE,112,0.0,1.0,88,0.00,,,0.00,TxWx,2013-05-16 11:48:00,
2013-05-16 07:49:00,80.0,42.0,29.68,West,270,11.0,13.0,26,0.00,,,0.00,TxWx,2013-05-16 11:49:00,
2013-05-16 07:50:00,80.0,42.0,29.67,SW,225,10.0,11.0,27,0.00,,,0.00,TxWx,2013-05-16 11:50:00,
2013-05-16 07:51:00,80.0,42.0,29.67,WSW,247,10.0,10.0,27,0.00,,,0.00,TxWx,2013-05-16 11:51:00,
2013-05-16 07:52:00,80.0,43.0,29.67,WSW,247,3.0,5.0,27,0.00,,,0.00,TxWx,2013-05-16 11:52:00,
2013-05-16 07:53:00,57.0,53.0,29.75,ESE,112,0.0,1.0,88,0.00,,,0.00,TxWx,2013-05-16 11:53:00,
2013-05-16 07:58:00,58.0,54.0,29.75,ESE,112,1.0,1.0,87,0.00,,,0.00,TxWx,2013-05-16 11:58:00,
2013-05-16 08:03:00,58.0,54.0,29.75,ESE,112,0.0,0.0,86,0.00,,,0.00,TxWx,2013-05-16 12:03:00,
2013-05-16 08:08:00,59.0,54.0,29.75,ENE,67,0.0,0.0,85,0.00,,,0.00,TxWx,2013-05-16 12:08:00,
2013-05-16 08:13:00,60.0,55.0,29.75,ESE,112,2.0,2.0,83,0.00,,,0.00,TxWx,2013-05-16 12:13:00,
2013-05-16 08:18:00,61.0,55.0,29.75,South,180,1.0,3.0,81,0.00,,,0.00,TxWx,2013-05-16 12:18:00,
2013-05-16 08:23:00,61.0,54.0,29.75,ESE,112,0.0,0.0,79,0.00,,,0.00,TxWx,2013-05-16 12:23:00,
2013-05-16 08:28:00,62.0,55.0,29.75,ESE,112,2.0,3.0,77,0.00,,,0.00,TxWx,2013-05-16 12:28:00,
2013-05-16 08:33:00,62.0,54.0,29.75,ESE,112,3.0,3.0,74,0.00,,,0.00,TxWx,2013-05-16 12:33:00,
2013-05-16 08:38:00,63.0,54.0,29.75,ESE,112,2.0,2.0,72,0.00,,,0.00,TxWx,2013-05-16 12:38:00,
2013-05-16 08:43:00,63.0,52.0,29.75,ESE,112,2.0,2.0,69,0.00,,,0.00,TxWx,2013-05-16 12:43:00,
2013-05-16 08:49:00,64.0,53.0,29.75,SSE,157,0.0,1.0,67,0.00,,,0.00,TxWx,2013-05-16 12:49:00,
2013-05-16 08:54:00,65.0,51.0,29.75,ESE,112,3.0,3.0,61,0.00,,,0.00,TxWx,2013-05-16 12:54:00,
2013-05-16 08:59:00,65.0,50.0,29.75,SE,135,1.0,2.0,59,0.00,,,0.00,TxWx,2013-05-16 12:59:00,
2013-05-16 09:04:00,66.0,50.0,29.75,SE,135,0.0,0.0,57,0.00,,,0.00,TxWx,2013-05-16 13:04:00,
2013-05-16 09:09:00,67.0,50.0,29.75,NNE,22,0.0,1.0,55,0.00,,,0.00,TxWx,2013-05-16 13:09:00,
2013-05-16 09:14:00,68.0,50.0,29.75,SE,135,0.0,1.0,53,0.00,,,0.00,TxWx,2013-05-16 13:14:00,
2013-05-16 09:17:00,78.0,44.0,29.69,NW,315,10.0,12.0,30,0.00,,,0.00,TxWx,2013-05-16 13:17:00,
2013-05-16 09:19:00,68.0,49.0,29.75,WNW,292,4.0,4.0,51,0.00,,,0.00,TxWx,2013-05-16 13:19:00,
2013-05-16 09:24:00,69.0,48.0,29.75,SW,225,6.0,6.0,48,0.00,,,0.00,TxWx,2013-05-16 13:24:00,
2013-05-16 09:29:00,69.0,47.0,29.75,SSW,202,6.0,7.0,46,0.00,,,0.00,TxWx,2013-05-16 13:29:00,
2013-05-16 09:34:00,69.0,44.0,29.75,SW,225,3.0,6.0,41,0.00,,,0.00,TxWx,2013-05-16 13:34:00,
2013-05-16 09:39:00,70.0,44.0,29.75,WNW,292,3.0,6.0,40,0.00,,,0.00,TxWx,2013-05-16 13:39:00,
2013-05-16 09:44:00,70.0,44.0,29.75,West,270,5.0,8.0,39,0.00,,,0.00,TxWx,2013-05-16 13:44:00,
2013-05-16 09:49:00,70.0,43.0,29.75,SW,225,6.0,6.0,38,0.00,,,0.00,TxWx,2013-05-16 13:49:00,
2013-05-16 09:54:00,71.0,44.0,29.75,WSW,247,6.0,6.0,38,0.00,,,0.00,TxWx,2013-05-16 13:54:00,
2013-05-16 10:00:00,71.0,43.0,29.75,NNW,337,5.0,6.0,37,0.00,,,0.00,TxWx,2013-05-16 14:00:00,
2013-05-16 10:05:00,72.0,45.0,29.75,SW,225,8.0,8.0,38,0.00,,,0.00,TxWx,2013-05-16 14:05:00,
2013-05-16 10:10:00,72.0,44.0,29.75,SW,225,6.0,7.0,37,0.00,,,0.00,TxWx,2013-05-16 14:10:00,
2013-05-16 10:15:00,72.0,43.0,29.75,SW,225,6.0,9.0,35,0.00,,,0.00,TxWx,2013-05-16 14:15:00,
2013-05-16 10:20:00,72.0,43.0,29.74,SW,225,5.0,6.0,36,0.00,,,0.00,TxWx,2013-05-16 14:20:00,
2013-05-16 10:25:00,73.0,43.0,29.74,South,180,17.0,17.0,35,0.00,,,0.00,TxWx,2013-05-16 14:25:00,
2013-05-16 10:30:00,73.0,43.0,29.74,SSW,202,7.0,12.0,34,0.00,,,0.00,TxWx,2013-05-16 14:30:00,
2013-05-16 10:35:00,73.0,43.0,29.74,WNW,292,5.0,6.0,34,0.00,,,0.00,TxWx,2013-05-16 14:35:00,
2013-05-16 10:40:00,73.0,42.0,29.74,SW,225,10.0,13.0,33,0.00,,,0.00,TxWx,2013-05-16 14:40:00,
2013-05-16 10:45:00,73.0,42.0,29.74,SSE,157,11.0,12.0,33,0.00,,,0.00,TxWx,2013-05-16 14:45:00,
2013-05-16 10:50:00,73.0,42.0,29.74,SW,225,13.0,13.0,33,0.00,,,0.00,TxWx,2013-05-16 14:50:00,
2013-05-16 10:55:00,73.0,42.0,29.74,West,270,6.0,10.0,33,0.00,,,0.00,TxWx,2013-05-16 14:55:00,
2013-05-16 11:00:00,74.0,43.0,29.73,SSE,157,2.0,6.0,33,0.00,,,0.00,TxWx,2013-05-16 15:00:00,
2013-05-16 11:06:00,74.0,43.0,29.73,SSW,202,8.0,9.0,33,0.00,,,0.00,TxWx,2013-05-16 15:06:00,
2013-05-16 11:11:00,75.0,43.0,29.73,SSE,157,6.0,7.0,33,0.00,,,0.00,TxWx,2013-05-16 15:11:00,
2013-05-16 11:16:00,74.0,42.0,29.73,WSW,247,11.0,12.0,32,0.00,,,0.00,TxWx,2013-05-16 15:16:00,
2013-05-16 11:21:00,75.0,43.0,29.73,WNW,292,5.0,5.0,33,0.00,,,0.00,TxWx,2013-05-16 15:21:00,
2013-05-16 11:26:00,75.0,43.0,29.72,SW,225,6.0,9.0,32,0.00,,,0.00,TxWx,2013-05-16 15:26:00,
2013-05-16 11:31:00,75.0,43.0,29.72,WSW,247,7.0,7.0,32,0.00,,,0.00,TxWx,2013-05-16 15:31:00,
2013-05-16 11:36:00,75.0,43.0,29.72,WNW,292,6.0,6.0,33,0.00,,,0.00,TxWx,2013-05-16 15:36:00,
2013-05-16 11:41:00,76.0,44.0,29.72,SSW,202,4.0,8.0,33,0.00,,,0.00,TxWx,2013-05-16 15:41:00,
2013-05-16 11:46:00,76.0,43.0,29.72,West,270,10.0,13.0,31,0.00,,,0.00,TxWx,2013-05-16 15:46:00,
2013-05-16 11:51:00,76.0,43.0,29.72,South,180,10.0,13.0,31,0.00,,,0.00,TxWx,2013-05-16 15:51:00,
2013-05-16 11:56:00,76.0,44.0,29.72,NW,315,3.0,5.0,32,0.00,,,0.00,TxWx,2013-05-16 15:56:00,
2013-05-16 12:01:00,76.0,43.0,29.71,SSW,202,6.0,12.0,31,0.00,,,0.00,TxWx,2013-05-16 16:01:00,
2013-05-16 12:06:00,76.0,44.0,29.71,SW,225,8.0,8.0,32,0.00,,,0.00,TxWx,2013-05-16 16:06:00,
2013-05-16 12:15:00,76.0,43.0,29.71,South,180,21.0,21.0,31,0.00,,,0.00,TxWx,2013-05-16 16:15:00,
2013-05-16 12:20:00,76.0,42.0,29.70,SSW,202,14.0,15.0,30,0.00,,,0.00,TxWx,2013-05-16 16:20:00,
2013-05-16 12:25:00,77.0,44.0,29.70,West,270,3.0,6.0,31,0.00,,,0.00,TxWx,2013-05-16 16:25:00,
2013-05-16 12:30:00,77.0,43.0,29.70,South,180,9.0,11.0,30,0.00,,,0.00,TxWx,2013-05-16 16:30:00,
2013-05-16 12:35:00,77.0,44.0,29.70,South,180,5.0,6.0,31,0.00,,,0.00,TxWx,2013-05-16 16:35:00,
2013-05-16 12:40:00,77.0,43.0,29.70,WNW,292,10.0,11.0,30,0.00,,,0.00,TxWx,2013-05-16 16:40:00,
2013-05-16 12:45:00,77.0,43.0,29.70,WNW,292,6.0,11.0,30,0.00,,,0.00,TxWx,2013-05-16 16:45:00,
2013-05-16 12:50:00,78.0,44.0,29.70,WSW,247,8.0,10.0,30,0.00,,,0.00,TxWx,2013-05-16 16:50:00,
2013-05-16 12:55:00,78.0,44.0,29.70,West,270,9.0,10.0,30,0.00,,,0.00,TxWx,2013-05-16 16:55:00,
2013-05-16 13:00:00,78.0,44.0,29.70,West,270,15.0,19.0,30,0.00,,,0.00,TxWx,2013-05-16 17:00:00,
2013-05-16 13:05:00,78.0,44.0,29.70,NW,315,8.0,13.0,30,0.00,,,0.00,TxWx,2013-05-16 17:05:00,
2013-05-16 13:10:00,77.0,43.0,29.69,South,180,6.0,9.0,30,0.00,,,0.00,TxWx,2013-05-16 17:10:00,
2013-05-16 13:16:00,77.0,43.0,29.69,WNW,292,12.0,12.0,30,0.00,,,0.00,TxWx,2013-05-16 17:16:00,
2013-05-16 13:21:00,78.0,44.0,29.69,WSW,247,14.0,16.0,30,0.00,,,0.00,TxWx,2013-05-16 17:21:00,
2013-05-16 13:26:00,78.0,44.0,29.69,WNW,292,10.0,10.0,31,0.00,,,0.00,TxWx,2013-05-16 17:26:00,
2013-05-16 13:31:00,78.0,43.0,29.69,SW,225,14.0,14.0,29,0.00,,,0.00,TxWx,2013-05-16 17:31:00,
2013-05-16 13:36:00,79.0,44.0,29.69,ENE,67,1.0,1.0,30,0.00,,,0.00,TxWx,2013-05-16 17:36:00,
2013-05-16 13:41:00,79.0,43.0,29.69,WSW,247,11.0,13.0,29,0.00,,,0.00,TxWx,2013-05-16 17:41:00,
2013-05-16 13:46:00,79.0,44.0,29.69,South,180,11.0,12.0,30,0.00,,,0.00,TxWx,2013-05-16 17:46:00,
2013-05-16 13:51:00,79.0,43.0,29.69,SSW,202,8.0,10.0,28,0.00,,,0.00,TxWx,2013-05-16 17:51:00,
2013-05-16 13:56:00,79.0,43.0,29.69,WSW,247,5.0,7.0,28,0.00,,,0.00,TxWx,2013-05-16 17:56:00,
2013-05-16 14:01:00,79.0,43.0,29.69,SSW,202,9.0,9.0,28,0.00,,,0.00,TxWx,2013-05-16 18:01:00,
2013-05-16 14:06:00,79.0,42.0,29.69,SSW,202,12.0,16.0,27,0.00,,,0.00,TxWx,2013-05-16 18:06:00,
2013-05-16 14:11:00,80.0,43.0,29.69,West,270,4.0,8.0,27,0.00,,,0.00,TxWx,2013-05-16 18:11:00,
2013-05-16 14:17:00,80.0,43.0,29.69,WSW,247,3.0,5.0,27,0.00,,,0.00,TxWx,2013-05-16 18:17:00,
2013-05-16 14:22:00,80.0,43.0,29.69,SSW,202,8.0,11.0,28,0.00,,,0.00,TxWx,2013-05-16 18:22:00,
2013-05-16 14:27:00,80.0,43.0,29.69,West,270,19.0,21.0,27,0.00,,,0.00,TxWx,2013-05-16 18:27:00,
2013-05-16 14:32:00,80.0,43.0,29.69,South,180,3.0,5.0,27,0.00,,,0.00,TxWx,2013-05-16 18:32:00,
2013-05-16 14:37:00,80.0,42.0,29.69,SW,225,16.0,16.0,27,0.00,,,0.00,TxWx,2013-05-16 18:37:00,
2013-05-16 14:42:00,80.0,42.0,29.69,SSW,202,8.0,11.0,26,0.00,,,0.00,TxWx,2013-05-16 18:42:00,
2013-05-16 14:47:00,80.0,42.0,29.68,SSW,202,7.0,7.0,27,0.00,,,0.00,TxWx,2013-05-16 18:47:00,
2013-05-16 14:52:00,80.0,43.0,29.69,SW,225,7.0,8.0,28,0.00,,,0.00,TxWx,2013-05-16 18:52:00,
2013-05-16 14:57:00,80.0,42.0,29.68,South,180,12.0,13.0,27,0.00,,,0.00,TxWx,2013-05-16 18:57:00,
2013-05-16 15:01:00,62.0,44.0,29.86,WNW,292,7.0,10.0,51,0.00,,,0.00,TxWx,2013-05-16 19:01:00,
2013-05-16 15:02:00,80.0,42.0,29.68,West,270,10.0,16.0,27,0.00,,,0.00,TxWx,2013-05-16 19:02:00,
2013-05-16 15:03:00,62.0,44.0,29.86,NNW,337,6.0,8.0,52,0.00,,,0.00,TxWx,2013-05-16 19:03:00,
2013-05-16 15:04:00,62.0,44.0,29.86,North,0,5.0,5.0,53,0.00,,,0.00,TxWx,2013-05-16 19:04:00,
2013-05-16 15:07:00,80.0,42.0,29.68,SSE,157,10.0,14.0,26,0.00,,,0.00,TxWx,2013-05-16 19:07:00,
2013-05-16 15:12:00,80.0,42.0,29.69,West,270,8.0,13.0,27,0.00,,,0.00,TxWx,2013-05-16 19:12:00,
2013-05-16 15:18:00,80.0,43.0,29.68,West,270,8.0,8.0,27,0.00,,,0.00,TxWx,2013-05-16 19:18:00,
2013-05-16 15:23:00,80.0,42.0,29.69,WSW,247,16.0,16.0,27,0.00,,,0.00,TxWx,2013-05-16 19:23:00,
2013-05-16 15:28:00,80.0,43.0,29.68,NW,315,5.0,10.0,27,0.00,,,0.00,TxWx,2013-05-16 19:28:00,
2013-05-16 15:29:00,60.0,46.0,29.88,NNW,337,3.0,3.0,60,0.00,,,0.00,TxWx,2013-05-16 19:29:00,
2013-05-16 15:30:00,60.0,46.0,29.88,NNW,337,1.0,3.0,60,0.00,,,0.00,TxWx,2013-05-16 19:30:00,
2013-05-16 15:31:00,60.0,46.0,29.88,NW,315,3.0,5.0,60,0.00,,,0.00,TxWx,2013-05-16 19:31:00,
2013-05-16 15:32:00,60.0,46.0,29.88,NNW,337,3.0,3.0,60,0.00,,,0.00,TxWx,2013-05-16 19:32:00,
2013-05-16 15:33:00,80.0,43.0,29.68,West,270,10.0,13.0,27,0.00,,,0.00,TxWx,2013-05-16 19:33:00,
2013-05-16 15:38:00,80.0,43.0,29.68,WSW,247,10.0,10.0,27,0.00,,,0.00,TxWx,2013-05-16 19:38:00,
2013-05-16 15:43:00,80.0,42.0,29.68,West,270,10.0,10.0,26,0.00,,,0.00,TxWx,2013-05-16 19:43:00,
2013-05-16 15:48:00,81.0,43.0,29.68,West,270,12.0,12.0,27,0.00,,,0.00,TxWx,2013-05-16 19:48:00,
2013-05-16 15:53:00,80.0,41.0,29.68,WSW,247,8.0,15.0,26,0.00,,,0.00,TxWx,2013-05-16 19:53:00,
2013-05-16 15:58:00,80.0,42.0,29.68,SW,225,13.0,18.0,26,0.00,,,0.00,TxWx,2013-05-16 19:58:00,
2013-05-16 16:03:00,80.0,41.0,29.68,SSW,202,10.0,17.0,26,0.00,,,0.00,TxWx,2013-05-16 20:03:00,
2013-05-16 16:08:00,80.0,42.0,29.67,West,270,6.0,7.0,27,0.00,,,0.00,TxWx,2013-05-16 20:08:00,
2013-05-16 16:14:00,80.0,43.0,29.67,NW,315,5.0,6.0,27,0.00,,,0.00,TxWx,2013-05-16 20:14:00,
2013-05-16 16:19:00,81.0,43.0,29.67,NE,45,1.0,5.0,27,0.00,,,0.00,TxWx,2013-05-16 20:19:00,
2013-05-16 16:24:00,80.0,42.0,29.67,SSW,202,14.0,17.0,27,0.00,,,0.00,TxWx,2013-05-16 20:24:00,
2013-05-16 16:29:00,80.0,43.0,29.67,SW,225,5.0,6.0,27,0.00,,,0.00,TxWx,2013-05-16 20:29:00,
2013-05-16 16:34:00,80.0,43.0,29.67,WSW,247,5.0,9.0,27,0.00,,,0.00,TxWx,2013-05-16 20:34:00,
2013-05-16 16:39:00,80.0,42.0,29.67,WSW,247,14.0,16.0,27,0.00,,,0.00,TxWx,2013-05-16 20:39:00,
2013-05-16 16:44:00,80.0,41.0,29.67,WNW,292,10.0,11.0,26,0.00,,,0.00,TxWx,2013-05-16 20:44:00,
2013-05-16 16:50:00,80.0,42.0,29.68,SW,225,7.0,11.0,27,0.00,,,0.00,TxWx,2013-05-16 20:50:00,
2013-05-16 16:55:00,81.0,43.0,29.68,SW,225,12.0,12.0,27,0.00,,,0.00,TxWx,2013-05-16 20:55:00,
2013-05-16 17:00:00,80.0,42.0,29.67,West,270,12.0,13.0,27,0.00,,,0.00,TxWx,2013-05-16 21:00:00,
2013-05-16 17:05:00,80.0,42.0,29.68,WSW,247,8.0,12.0,27,0.00,,,0.00,TxWx,2013-05-16 21:05:00,
2013-05-16 17:10:00,80.0,42.0,29.67,SW,225,11.0,13.0,27,0.00,,,0.00,TxWx,2013-05-16 21:10:00,
2013-05-16 17:15:00,80.0,41.0,29.68,West,270,8.0,16.0,26,0.00,,,0.00,TxWx,2013-05-16 21:15:00,
2013-05-16 17:20:00,80.0,42.0,29.67,NW,315,6.0,6.0,26,0.00,,,0.00,TxWx,2013-05-16 21:20:00,
2013-05-16 17:25:00,80.0,42.0,29.67,SW,225,5.0,5.0,27,0.00,,,0.00,TxWx,2013-05-16 21:25:00,
2013-05-16 17:30:00,80.0,43.0,29.68,NNW,337,10.0,11.0,27,0.00,,,0.00,TxWx,2013-05-16 21:30:00,
2013-05-16 17:31:00,56.0,46.0,29.92,SSW,202,0.0,1.0,69,0.00,,,0.00,TxWx,2013-05-16 21:31:00,
2013-05-16 17:32:00,56.0,46.0,29.92,WSW,247,3.0,3.0,69,0.00,,,0.00,TxWx,2013-05-16 21:32:00,
2013-05-16 17:33:00,56.0,46.0,29.92,NW,315,0.0,0.0,69,0.00,,,0.00,TxWx,2013-05-16 21:33:00,
2013-05-16 17:35:00,80.0,44.0,29.68,SW,225,4.0,6.0,28,0.00,,,0.00,TxWx,2013-05-16 21:35:00,
2013-05-16 17:36:00,56.0,46.0,29.93,NW,315,1.0,2.0,69,0.00,,,0.00,TxWx,2013-05-16 21:36:00,
2013-05-16 17:37:00,56.0,46.0,29.93,North,0,2.0,3.0,69,0.00,,,0.00,TxWx,2013-05-16 21:37:00,
2013-05-16 17:38:00,56.0,46.0,29.93,NNW,337,3.0,5.0,69,0.00,,,0.00,TxWx,2013-05-16 21:38:00,
2013-05-16 17:40:00,56.0,46.0,29.93,North,0,0.0,0.0,69,0.00,,,0.00,TxWx,2013-05-16 21:40:00,
2013-05-16 17:41:00,80.0,44.0,29.68,WSW,247,7.0,8.0,29,0.00,,,0.00,TxWx,2013-05-16 21:41:00,
2013-05-16 17:42:00,56.0,46.0,29.93,NNE,22,1.0,2.0,69,0.00,,,0.00,TxWx,2013-05-16 21:42:00,
2013-05-16 17:46:00,80.0,44.0,29.68,West,270,5.0,5.0,29,0.00,,,0.00,TxWx,2013-05-16 21:46:00,
2013-05-16 17:51:00,80.0,45.0,29.68,West,270,10.0,12.0,29,0.00,,,0.00,TxWx,2013-05-16 21:51:00,
2013-05-16 17:56:00,80.0,45.0,29.68,SW,225,10.0,13.0,29,0.00,,,0.00,TxWx,2013-05-16 21:56:00,
2013-05-16 18:01:00,79.0,44.0,29.69,West,270,6.0,7.0,29,0.00,,,0.00,TxWx,2013-05-16 22:01:00,
2013-05-16 18:06:00,79.0,43.0,29.68,WNW,292,9.0,14.0,29,0.00,,,0.00,TxWx,2013-05-16 22:06:00,
2013-05-16 18:11:00,78.0,43.0,29.69,SW,225,15.0,16.0,29,0.00,,,0.00,TxWx,2013-05-16 22:11:00,
2013-05-16 18:16:00,78.0,44.0,29.69,West,270,8.0,8.0,30,0.00,,,0.00,TxWx,2013-05-16 22:16:00,
2013-05-16 18:21:00,78.0,44.0,29.69,WSW,247,14.0,16.0,31,0.00,,,0.00,TxWx,2013-05-16 22:21:00,
2013-05-16 18:26:00,78.0,45.0,29.69,West,270,11.0,11.0,31,0.00,,,0.00,TxWx,2013-05-16 22:26:00,
2013-05-16 18:31:00,78.0,44.0,29.69,WSW,247,10.0,11.0,31,0.00,,,0.00,TxWx,2013-05-16 22:31:00,
2013-05-16 18:36:00,78.0,44.0,29.70,South,180,3.0,3.0,30,0.00,,,0.00,TxWx,2013-05-16 22:36:00,
2013-05-16 18:41:00,77.0,43.0,29.70,NNE,22,2.0,3.0,30,0.00,,,0.00,TxWx,2013-05-16 22:41:00,
2013-05-16 18:46:00,77.0,42.0,29.70,SW,225,14.0,18.0,29,0.00,,,0.00,TxWx,2013-05-16 22:46:00,
2013-05-16 18:52:00,77.0,42.0,29.71,West,270,9.0,13.0,29,0.00,,,0.00,TxWx,2013-05-16 22:52:00,
2013-05-16 18:57:00,77.0,41.0,29.71,West,270,5.0,6.0,28,0.00,,,0.00,TxWx,2013-05-16 22:57:00,
2013-05-16 19:02:00,76.0,40.0,29.71,WNW,292,3.0,4.0,28,0.00,,,0.00,TxWx,2013-05-16 23:02:00,
2013-05-16 19:07:00,76.0,40.0,29.71,WSW,247,5.0,5.0,28,0.00,,,0.00,TxWx,2013-05-16 23:07:00,
2013-05-16 19:12:00,76.0,40.0,29.71,NE,45,1.0,6.0,28,0.00,,,0.00,TxWx,2013-05-16 23:12:00,
2013-05-16 19:17:00,76.0,40.0,29.72,WSW,247,6.0,6.0,28,0.00,,,0.00,TxWx,2013-05-16 23:17:00,
2013-05-16 19:22:00,76.0,40.0,29.72,West,270,3.0,5.0,28,0.00,,,0.00,TxWx,2013-05-16 23:22:00,
2013-05-16 19:27:00,75.0,40.0,29.72,NNW,337,3.0,5.0,29,0.00,,,0.00,TxWx,2013-05-16 23:27:00,
2013-05-16 19:32:00,75.0,40.0,29.73,WNW,292,5.0,6.0,29,0.00,,,0.00,TxWx,2013-05-16 23:32:00,
2013-05-16 19:37:00,75.0,41.0,29.73,West,270,6.0,6.0,29,0.00,,,0.00,TxWx,2013-05-16 23:37:00,
2013-05-16 19:42:00,75.0,41.0,29.74,South,180,6.0,6.0,30,0.00,,,0.00,TxWx,2013-05-16 23:42:00,
2013-05-16 19:47:00,74.0,40.0,29.74,South,180,5.0,5.0,30,0.00,,,0.00,TxWx,2013-05-16 23:47:00,
2013-05-16 19:52:00,74.0,41.0,29.75,SSW,202,3.0,4.0,30,0.00,,,0.00,TxWx,2013-05-16 23:52:00,
2013-05-16 19:58:00,74.0,41.0,29.75,West,270,3.0,4.0,30,0.00,,,0.00,TxWx,2013-05-16 23:58:00,
2013-05-16 20:03:00,74.0,41.0,29.75,SW,225,1.0,2.0,31,0.00,,,0.00,TxWx,2013-05-17 00:03:00,
2013-05-16 20:08:00,74.0,41.0,29.76,West,270,1.0,2.0,31,0.00,,,0.00,TxWx,2013-05-17 00:08:00,
2013-05-16 20:13:00,73.0,41.0,29.76,WSW,247,3.0,4.0,31,0.00,,,0.00,TxWx,2013-05-17 00:13:00,
2013-05-16 20:18:00,73.0,41.0,29.77,West,270,8.0,9.0,32,0.00,,,0.00,TxWx,2013-05-17 00:18:00,
2013-05-16 20:23:00,73.0,41.0,29.77,West,270,5.0,7.0,32,0.00,,,0.00,TxWx,2013-05-17 00:23:00,
2013-05-16 20:28:00,73.0,42.0,29.77,SSW,202,7.0,8.0,33,0.00,,,0.00,TxWx,2013-05-17 00:28:00,
2013-05-16 20:33:00,72.0,41.0,29.77,SSW,202,5.0,6.0,33,0.00,,,0.00,TxWx,2013-05-17 00:33:00,
2013-05-16 20:38:00,72.0,42.0,29.78,SSW,202,0.0,0.0,34,0.00,,,0.00,TxWx,2013-05-17 00:38:00,
2013-05-16 20:43:00,72.0,42.0,29.78,West,270,0.0,0.0,34,0.00,,,0.00,TxWx,2013-05-17 00:43:00,
2013-05-16 20:48:00,71.0,42.0,29.78,NNE,22,1.0,2.0,35,0.00,,,0.00,TxWx,2013-05-17 00:48:00,
2013-05-16 20:53:00,71.0,42.0,29.79,NNW,337,2.0,2.0,36,0.00,,,0.00,TxWx,2013-05-17 00:53:00,
2013-05-16 20:58:00,70.0,42.0,29.79,WNW,292,3.0,4.0,37,0.00,,,0.00,TxWx,2013-05-17 00:58:00,
2013-05-16 21:03:00,70.0,42.0,29.80,WNW,292,3.0,3.0,37,0.00,,,0.00,TxWx,2013-05-17 01:03:00,
2013-05-16 21:09:00,70.0,42.0,29.80,East,90,0.0,0.0,37,0.00,,,0.00,TxWx,2013-05-17 01:09:00,
2013-05-16 21:14:00,70.0,42.0,29.80,WNW,292,0.0,1.0,37,0.00,,,0.00,TxWx,2013-05-17 01:14:00,
2013-05-16 21:19:00,70.0,42.0,29.80,WNW,292,6.0,6.0,36,0.00,,,0.00,TxWx,2013-05-17 01:19:00,
2013-05-16 21:24:00,70.0,42.0,29.81,NNW,337,3.0,3.0,36,0.00,,,0.00,TxWx,2013-05-17 01:24:00,
2013-05-16 21:29:00,70.0,42.0,29.81,North,0,6.0,6.0,36,0.00,,,0.00,TxWx,2013-05-17 01:29:00,
2013-05-16 21:34:00,69.0,41.0,29.81,North,0,2.0,2.0,36,0.00,,,0.00,TxWx,2013-05-17 01:34:00,
2013-05-16 21:39:00,69.0,41.0,29.82,NE,45,0.0,1.0,37,0.00,,,0.00,TxWx,2013-05-17 01:39:00,
2013-05-16 21:44:00,69.0,42.0,29.82,NE,45,0.0,0.0,37,0.00,,,0.00,TxWx,2013-05-17 01:44:00,
2013-05-16 21:49:00,69.0,42.0,29.82,North,0,1.0,1.0,38,0.00,,,0.00,TxWx,2013-05-17 01:49:00,
2013-05-16 21:54:00,68.0,41.0,29.82,South,180,0.0,0.0,38,0.00,,,0.00,TxWx,2013-05-17 01:54:00,
2013-05-16 21:59:00,67.0,41.0,29.82,NW,315,6.0,6.0,39,0.00,,,0.00,TxWx,2013-05-17 01:59:00,
2013-05-16 22:00:00,52.0,43.0,30.06,NW,315,2.0,5.0,70,0.00,,,0.00,TxWx,2013-05-17 02:00:00,
2013-05-16 22:01:00,52.0,43.0,30.06,East,90,0.0,2.0,70,0.00,,,0.00,TxWx,2013-05-17 02:01:00,
2013-05-16 22:02:00,52.0,42.0,30.07,WNW,292,5.0,9.0,70,0.00,,,0.00,TxWx,2013-05-17 02:02:00,
2013-05-16 22:03:00,52.0,42.0,30.06,WNW,292,6.0,6.0,70,0.00,,,0.00,TxWx,2013-05-17 02:03:00,
2013-05-16 22:04:00,67.0,41.0,29.82,West,270,0.0,1.0,39,0.00,,,0.00,TxWx,2013-05-17 02:04:00,
2013-05-16 22:09:00,67.0,41.0,29.82,ESE,112,0.0,0.0,39,0.00,,,0.00,TxWx,2013-05-17 02:09:00,
2013-05-16 22:14:00,67.0,41.0,29.82,West,270,5.0,5.0,39,0.00,,,0.00,TxWx,2013-05-17 02:14:00,
2013-05-16 22:19:00,67.0,40.0,29.82,North,0,3.0,6.0,38,0.00,,,0.00,TxWx,2013-05-17 02:19:00,
2013-05-16 22:25:00,67.0,40.0,29.82,NW,315,1.0,3.0,37,0.00,,,0.00,TxWx,2013-05-17 02:25:00,
2013-05-16 22:30:00,67.0,39.0,29.82,WNW,292,4.0,5.0,37,0.00,,,0.00,TxWx,2013-05-17 02:30:00,
2013-05-16 22:35:00,67.0,40.0,29.82,SE,135,0.0,0.0,37,0.00,,,0.00,TxWx,2013-05-17 02:35:00,
2013-05-16 22:40:00,67.0,40.0,29.82,WSW,247,2.0,2.0,38,0.00,,,0.00,TxWx,2013-05-17 02:40:00,
2013-05-16 22:45:00,66.0,39.0,29.82,SSW,202,3.0,3.0,38,0.00,,,0.00,TxWx,2013-05-17 02:45:00,
2013-05-16 22:50:00,66.0,40.0,29.82,South,180,2.0,3.0,38,0.00,,,0.00,TxWx,2013-05-17 02:50:00,
2013-05-16 22:55:00,66.0,40.0,29.83,South,180,1.0,2.0,39,0.00,,,0.00,TxWx,2013-05-17 02:55:00,
2013-05-16 23:00:00,66.0,39.0,29.83,SW,225,9.0,11.0,38,0.00,,,0.00,TxWx,2013-05-17 03:00:00,
2013-05-16 23:05:00,66.0,40.0,29.83,WSW,247,3.0,3.0,38,0.00,,,0.00,TxWx,2013-05-17 03:05:00,
2013-05-16 23:10:00,66.0,40.0,29.83,SSW,202,5.0,8.0,38,0.00,,,0.00,TxWx,2013-05-17 03:10:00,
2013-05-16 23:15:00,66.0,40.0,29.83,South,180,1.0,3.0,38,0.00,,,0.00,TxWx,2013-05-17 03:15:00,
2013-05-16 23:20:00,66.0,40.0,29.83,South,180,4.0,5.0,39,0.00,,,0.00,TxWx,2013-05-17 03:20:00,
2013-05-16 23:25:00,65.0,39.0,29.84,SSW,202,1.0,4.0,39,0.00,,,0.00,TxWx,2013-05-17 03:25:00,
2013-05-16 23:30:00,65.0,39.0,29.84,SSW,202,3.0,3.0,39,0.00,,,0.00,TxWx,2013-05-17 03:30:00,
2013-05-16 23:35:00,65.0,40.0,29.84,South,180,2.0,3.0,40,0.00,,,0.00,TxWx,2013-05-17 03:35:00,
2013-05-16 23:41:00,65.0,40.0,29.85,NW,315,3.0,3.0,40,0.00,,,0.00,TxWx,2013-05-17 03:41:00,
2013-05-16 23:46:00,64.0,40.0,29.85,WNW,292,3.0,4.0,41,0.00,,,0.00,TxWx,2013-05-17 03:46:00,
2013-05-16 23:51:00,64.0,40.0,29.86,North,0,4.0,5.0,42,0.00,,,0.00,TxWx,2013-05-17 03:51:00,
2013-05-16 23:56:00,63.0,43.0,29.86,NW,315,9.0,11.0,48,0.00,,,0.00,TxWx,2013-05-17 03:56:00,